Hourly Data Report for March 30, 2020

OTTAWA INTL A
ONTARIO
Current Station Operator: NAVCAN

45°19'00.000" N
75°40'00.000" W
114.90 m
6106001
71628
YOW

Download Data

Hourly Data (March 2020)
Hourly Data Report for March 30, 2020
TIME
LST
Temp Definition
°C
Dew Point Definition
°C
Rel Hum Definition
%
Precip. Amount Definition
mm

Wind Dir Definition
10's deg

Wind Spd Definition
km/h
Visibility Definition
km
Stn Press Definition
kPa
Hmdx Definition


Wind Chill Definition


Weather Definition


00:00 8.1 6.5 89   21 16 12.9 99.35     LegendNANA
01:00 7.2 5.7 90   22 12 6.4 99.42     Drizzle, Fog
02:00 6.2 5.3 94   14 9 12.9 99.36     LegendNANA
03:00 6.2 4.9 92   15 11 24.1 99.33     LegendNANA
04:00 5.7 4.6 92   17 7 24.1 99.34     Cloudy
05:00 5.1 4.2 94   14 8 16.1 99.36     LegendNANA
06:00 5.3 4.4 94   15 10 16.1 99.39     LegendNANA
07:00 5.4 4.5 94   16 8 12.9 99.43     Rain
08:00 6.0 5.3 95   18 7 16.1 99.46     Rain
09:00 6.8 5.8 94   20 10 16.1 99.49     Rain
10:00 7.5 6.4 93   21 8 12.9 99.51     Rain
11:00 7.9 6.3 90   20 7 12.9 99.54     Rain
12:00 8.3 5.8 84   20 5 16.1 99.57     Rain
13:00 8.5 6.2 86   36 2 12.9 99.60     Rain
14:00 8.2 7.2 93   3 14 6.4 99.62     Rain, Fog
15:00 6.3 5.7 96   5 17 6.4 99.69     Rain, Fog
16:00 5.7 5.2 96   6 16 6.4 99.75     Rain, Fog
17:00 5.1 4.7 97   5 15 4.8 99.83     Rain, Fog
18:00 4.6 4.2 97   7 18 4.8 99.93     Rain, Fog
19:00 3.5 3.1 97   7 18 6.4 100.01     Rain, Fog
20:00 3.0 2.6 97   7 21 8.1 100.10     Rain, Fog
21:00 2.7 2.3 97   8 24 8.1 100.17     Rain, Fog
22:00 2.2 1.8 97   6 22 9.7 100.21     Rain, Fog
23:00 1.8 1.3 97   6 26 9.7 100.25     Rain, Fog

Notes on Data Quality.

Legend

  • E = Estimated
  • M = Missing
  • NA = Not Available*
  • [empty] = Indicates an unobserved value
Date modified: